Location: Arrodets-la-Barthe
(43.0306°N, 0.2829°E)
Time: 19:49:58
(UTC+00:00)

CZ-4B R/B - Pass Details

Date: 24 October 2021
Orbit: 808 x 882 km, 99.1° (Epoch: 02 December)

Event Time Altitude Azimuth Distance (km) Brightness Sun altitude
Rises 18:25:02 0° 176° (S) 3,459 6.4 -15.8°
Reaches altitude 10° 18:27:27 10° 180° (S) 2,529 5.7 -16.3°
Maximum altitude 18:33:00 57° 259° (WSW) 1,032 4.0 -17.3°
Drops below altitude 10° 18:38:35 10° 338° (NNW) 2,546 6.0 -18.3°
Sets 18:41:02 0° 342° (NNW) 3,484 6.6 -18.7°
